Observations for Trim Market St
| Time | AQI | Temp °C | Hum % | Pres Pa | CO μg/m³ | H₂S μg/m³ | NO μg/m³ | NO₂ μg/m³ | O₃ μg/m³ | SO₂ μg/m³ | PM1 μg/m³ | PM2.5 μg/m³ | PM10 μg/m³ |
|---|---|---|---|---|---|---|---|---|---|---|---|---|---|
| Sunday 23 August 2026 | |||||||||||||
| 16:04 | 2 | 25.6 | 34 | 65,752 | 0 | 0 | 1.02 | 13.2 | 74.21 | 0 | 0.71 | 3.67 | 4.04 |
| 16:03 | 2 | 25.6 | 34 | 65,758 | 0 | 0 | 1.12 | 12.59 | 77.28 | 0 | 0 | 3.13 | 3.45 |
| 16:02 | 2 | 25.6 | 34 | 65,770 | 0 | 0 | 1.25 | 12.96 | 74.07 | 0 | 0.71 | 4.21 | 4.63 |
| 16:01 | 2 | 25.7 | 34 | 65,750 | 0 | 0 | 1.24 | 13.46 | 75.15 | 0 | 1.43 | 4.21 | 4.63 |
| 16:00 | 2 | 25.7 | 34 | 65,728 | 0 | 0 | 1.2 | 12.77 | 79.92 | 0 | 2.14 | 4.21 | 4.63 |
| 15:59 | 2 | 25.7 | 34 | 65,728 | 0 | 0 | 1.24 | 10.59 | 76.04 | 0 | 0.71 | 4.75 | 5.84 |
| 15:58 | 2 | 25.7 | 34 | 65,730 | 0.18 | 0 | 1.1 | 16.54 | 74.73 | 0 | 1.43 | 4.75 | 5.84 |
| 15:57 | 2 | 25.7 | 34 | 65,730 | 0 | 0 | 0.98 | 12.98 | 74.23 | 0 | 0.71 | 4.75 | 5.22 |
| 15:56 | 2 | 25.7 | 34 | 65,758 | 0.04 | 0 | 1.11 | 14.2 | 78.5 | 0 | 0.71 | 3.68 | 4.04 |
| 15:55 | 2 | 25.7 | 34 | 65,736 | 0 | 0 | 1.12 | 14.07 | 75.73 | 0 | 0.71 | 4.22 | 4.64 |
| 15:53 | 2 | 25.7 | 34 | 65,764 | 0 | 0 | 1.27 | 11.49 | 76.26 | 0 | 0 | 3.15 | 3.46 |
| 15:52 | 2 | 25.7 | 34 | 65,772 | 0.01 | 0 | 1.39 | 14.87 | 75.02 | 0 | 1.43 | 4.76 | 5.23 |
| 15:49 | 2 | 25.7 | 34 | 65,782 | 0 | 0 | 1.04 | 8.25 | 75.04 | 0 | 0 | 3.66 | 4.03 |
| 15:48 | 2 | 25.7 | 34 | 65,772 | 0 | 0 | 1.04 | 13.97 | 74.44 | 0 | 0.71 | 3.66 | 4.02 |
| 15:47 | 2 | 25.7 | 34 | 65,782 | 0.02 | 0 | 0.99 | 13.75 | 73.95 | 0 | 0.71 | 3.65 | 4.02 |
| 15:45 | 2 | 25.6 | 35 | 65,746 | 0 | 0 | 1 | 11.31 | 74.54 | 0 | 0 | 3.11 | 3.42 |
| 15:44 | 2 | 25.6 | 35 | 65,746 | 0 | 0 | 1.05 | 12.95 | 73.88 | 0 | 0 | 4.18 | 4.6 |
| 15:43 | 2 | 25.6 | 35 | 65,717 | 0.01 | 0 | 1.07 | 13.11 | 73.66 | 0 | 0 | 3.1 | 3.42 |
| 15:42 | 2 | 25.6 | 35 | 65,713 | 0.14 | 0 | 1.15 | 12.44 | 73.54 | 0 | 0 | 3.1 | 3.41 |
| 15:40 | 2 | 25.5 | 35 | 65,728 | 0.01 | 0 | 0.99 | 13.03 | 73.24 | 0 | 0.71 | 3.62 | 3.99 |